User: anonymous   Login
Location: Luxembourg
(49.6117°N, 6.1300°E)
Time: 19:39:04
(UTC+01:00)
Language:

CUBESAT XI-V - Orbit

View from above orbital plane
View from above orbital plane
View from above satellite
View from above satellite

Ground track
Ground track

The orbit data is extracted from the following two-line orbital elements,

1 28895U 05043F   19080.90980426  .00000110  00000-0  30070-4 0  9996
2 28895  97.9438 226.7575 0015434 271.7881  88.1554 14.63640131714494
Epoch (UTC): 21 March 2019 21:50:07
Eccentricity: 0.0015434
inclination: 97.9438°
perigee height: 670 km
apogee height: 692 km
right ascension of ascending node: 226.7575°
argument of perigee: 271.7881°
revolutions per day: 14.63640131
mean anomaly at epoch: 88.1554°
orbit number at epoch: 71449

The dashed part of the orbit path shows where the satellite is in the earth's shadow,  

DLR